Previsão horária em Alloa

Hoje, 15 Junho, Terça-feira

Tempo Temperatura Precipitação Vento Pressão Humidade
00:00 +7°C° 0 mm 2 m/s 756 mmHg 91%
01:00 +7°C° 0 mm 2 m/s 756 mmHg 92%
02:00 +6°C° 0 mm 2 m/s 756 mmHg 94%
03:00 +6°C° 0 mm 2 m/s 756 mmHg 95%
04:00 +8°C° 0 mm 1 m/s 756 mmHg 92%
05:00 +9°C° 0 mm 1 m/s 756 mmHg 89%
06:00 +10°C° 0 mm 1 m/s 756 mmHg 86%
07:00 +10°C° 0 mm 2 m/s 756 mmHg 79%
08:00 +13°C° 0 mm 2 m/s 756 mmHg 71%
09:00 +14°C° 0 mm 2 m/s 756 mmHg 64%
10:00 +14°C° 0 mm 3 m/s 755 mmHg 61%
11:00 +16°C° 0 mm 3 m/s 755 mmHg 59%
12:00 +17°C° 0 mm 4 m/s 754 mmHg 56%
13:00 +18°C° 0 mm 4 m/s 753 mmHg 57%
14:00 +17°C° 0 mm 5 m/s 753 mmHg 57%
15:00 +17°C° 0 mm 5 m/s 752 mmHg 57%
16:00 +16°C° 0 mm 5 m/s 752 mmHg 63%
17:00 +14°C° 0 mm 4 m/s 751 mmHg 69%
18:00 +13°C° 0 mm 4 m/s 751 mmHg 75%
19:00 +13°C° 0 mm 3 m/s 750 mmHg 75%
20:00 +13°C° 0 mm 3 m/s 750 mmHg 75%
21:00 +14°C° 0 mm 2 m/s 749 mmHg 76%
22:00 +13°C° 0.2 mm 3 m/s 749 mmHg 78%
23:00 +13°C° 0.2 mm 3 m/s 748 mmHg 80%

Amanhã, 16 Junho, Quarta-feira

Tempo Temperatura Precipitação Vento Pressão Humidade
00:00 +13°C° 0.2 mm 3 m/s 748 mmHg 82%
01:00 +13°C° 0.5 mm 3 m/s 747 mmHg 85%
02:00 +13°C° 0.5 mm 4 m/s 747 mmHg 88%
03:00 +13°C° 0.5 mm 4 m/s 747 mmHg 92%
04:00 +13°C° 0.2 mm 4 m/s 747 mmHg 93%
05:00 +13°C° 0.2 mm 3 m/s 747 mmHg 94%
06:00 +13°C° 0.2 mm 3 m/s 747 mmHg 95%
07:00 +13°C° 0.1 mm 3 m/s 747 mmHg 93%
08:00 +12°C° 0.1 mm 3 m/s 747 mmHg 91%
09:00 +12°C° 0.1 mm 3 m/s 748 mmHg 90%
10:00 +13°C° 0 mm 4 m/s 748 mmHg 82%
11:00 +14°C° 0 mm 4 m/s 748 mmHg 75%
12:00 +15°C° 0 mm 5 m/s 748 mmHg 68%
13:00 +15°C° 0 mm 5 m/s 748 mmHg 68%
14:00 +15°C° 0 mm 5 m/s 748 mmHg 68%
15:00 +15°C° 0 mm 5 m/s 748 mmHg 68%
16:00 +14°C° 0 mm 4 m/s 748 mmHg 72%
17:00 +13°C° 0 mm 3 m/s 748 mmHg 76%
18:00 +12°C° 0 mm 3 m/s 749 mmHg 80%
19:00 +13°C° 0 mm 2 m/s 749 mmHg 82%
20:00 +13°C° 0 mm 2 m/s 749 mmHg 85%
21:00 +12°C° 0 mm 1 m/s 749 mmHg 87%
22:00 +12°C° 0 mm 1 m/s 749 mmHg 89%
23:00 +11°C° 0 mm 1 m/s 750 mmHg 90%

Depois de amanhã, 17 Junho, Quinta-feira

Tempo Temperatura Precipitação Vento Pressão Humidade
00:00 +11°C° 0 mm 1 m/s 750 mmHg 92%
01:00 +11°C° 0 mm 1 m/s 750 mmHg 92%
02:00 +11°C° 0 mm 1 m/s 750 mmHg 92%
03:00 +11°C° 0 mm 1 m/s 750 mmHg 92%
04:00 +11°C° 0 mm 1 m/s 750 mmHg 90%
05:00 +12°C° 0 mm 1 m/s 750 mmHg 89%
06:00 +12°C° 0 mm 1 m/s 750 mmHg 87%
07:00 +14°C° 0 mm 1 m/s 751 mmHg 81%
08:00 +15°C° 0 mm 1 m/s 751 mmHg 74%
09:00 +16°C° 0 mm 1 m/s 751 mmHg 68%
10:00 +18°C° 0 mm 1 m/s 751 mmHg 64%
11:00 +19°C° 0 mm 1 m/s 751 mmHg 60%
12:00 +20°C° 0 mm 1 m/s 751 mmHg 56%
13:00 +18°C° 0 mm 2 m/s 751 mmHg 57%
14:00 +18°C° 0 mm 2 m/s 751 mmHg 57%
15:00 +18°C° 0 mm 3 m/s 751 mmHg 58%
16:00 +18°C° 0 mm 3 m/s 751 mmHg 60%
17:00 +18°C° 0 mm 3 m/s 751 mmHg 62%
18:00 +17°C° 0 mm 2 m/s 751 mmHg 64%
19:00 +16°C° 0 mm 2 m/s 752 mmHg 68%
20:00 +14°C° 0 mm 2 m/s 752 mmHg 73%
21:00 +13°C° 0 mm 2 m/s 752 mmHg 77%
22:00 +12°C° 0 mm 2 m/s 752 mmHg 81%
23:00 +11°C° 0 mm 1 m/s 752 mmHg 84%

18 Junho, Sexta-feira

Tempo Temperatura Precipitação Vento Pressão Humidade
00:00 +10°C° 0 mm 1 m/s 752 mmHg 87%
01:00 +10°C° 0 mm 1 m/s 753 mmHg 87%
02:00 +11°C° 0 mm 1 m/s 753 mmHg 86%
03:00 +10°C° 0 mm 0 m/s 753 mmHg 86%
04:00 +11°C° 0 mm 1 m/s 753 mmHg 85%
05:00 +12°C° 0 mm 1 m/s 754 mmHg 85%
06:00 +12°C° 0 mm 1 m/s 754 mmHg 84%
07:00 +13°C° 0.1 mm 2 m/s 754 mmHg 81%
08:00 +14°C° 0.1 mm 2 m/s 754 mmHg 77%
09:00 +14°C° 0.1 mm 3 m/s 754 mmHg 73%
10:00 +14°C° 0.1 mm 3 m/s 754 mmHg 72%
11:00 +14°C° 0.1 mm 3 m/s 754 mmHg 71%
12:00 +14°C° 0.1 mm 3 m/s 754 mmHg 70%
13:00 +14°C° 0.1 mm 3 m/s 754 mmHg 69%
14:00 +16°C° 0.1 mm 3 m/s 753 mmHg 68%
15:00 +16°C° 0.1 mm 3 m/s 753 mmHg 68%
16:00 +14°C° 0.1 mm 3 m/s 753 mmHg 71%
17:00 +13°C° 0.1 mm 3 m/s 753 mmHg 74%
18:00 +13°C° 0.1 mm 3 m/s 753 mmHg 78%
19:00 +12°C° 0 mm 3 m/s 753 mmHg 80%
20:00 +12°C° 0 mm 2 m/s 753 mmHg 82%
21:00 +10°C° 0 mm 2 m/s 754 mmHg 84%
22:00 +10°C° 0 mm 2 m/s 754 mmHg 84%
23:00 +10°C° 0 mm 1 m/s 754 mmHg 84%

19 Junho, Sábado

Tempo Temperatura Precipitação Vento Pressão Humidade
00:00 +10°C° 0 mm 1 m/s 754 mmHg 84%
01:00 +10°C° 0 mm 1 m/s 754 mmHg 84%
02:00 +10°C° 0 mm 1 m/s 753 mmHg 84%
03:00 +10°C° 0 mm 1 m/s 753 mmHg 85%
04:00 +10°C° 0 mm 1 m/s 754 mmHg 84%
05:00 +10°C° 0 mm 1 m/s 754 mmHg 83%
06:00 +10°C° 0 mm 1 m/s 754 mmHg 82%
07:00 +11°C° 0 mm 1 m/s 754 mmHg 79%
08:00 +12°C° 0 mm 1 m/s 754 mmHg 76%
09:00 +13°C° 0 mm 1 m/s 754 mmHg 72%
10:00 +14°C° 0 mm 1 m/s 754 mmHg 70%
11:00 +15°C° 0 mm 1 m/s 754 mmHg 68%
12:00 +16°C° 0 mm 1 m/s 754 mmHg 65%
13:00 +16°C° 0.2 mm 2 m/s 754 mmHg 68%
14:00 +16°C° 0.2 mm 2 m/s 753 mmHg 71%
15:00 +16°C° 0.2 mm 2 m/s 753 mmHg 73%
16:00 +15°C° 0.3 mm 2 m/s 753 mmHg 76%
17:00 +15°C° 0.3 mm 2 m/s 753 mmHg 79%
18:00 +15°C° 0.3 mm 2 m/s 754 mmHg 82%
19:00 +13°C° 0.1 mm 2 m/s 753 mmHg 85%
20:00 +12°C° 0.1 mm 1 m/s 753 mmHg 87%
21:00 +11°C° 0.1 mm 1 m/s 753 mmHg 90%
22:00 +11°C° 0 mm 1 m/s 753 mmHg 91%
23:00 +11°C° 0 mm 1 m/s 753 mmHg 92%

20 Junho, Domingo

Tempo Temperatura Precipitação Vento Pressão Humidade
00:00 +10°C° 0 mm 1 m/s 753 mmHg 93%
01:00 +10°C° 0 mm 1 m/s 753 mmHg 94%
02:00 +9°C° 0 mm 1 m/s 753 mmHg 95%
03:00 +8°C° 0 mm 1 m/s 752 mmHg 95%
04:00 +8°C° 0 mm 0 m/s 752 mmHg 94%
05:00 +9°C° 0 mm 0 m/s 752 mmHg 92%
06:00 +10°C° 0 mm 0 m/s 752 mmHg 90%
07:00 +11°C° 0 mm 0 m/s 752 mmHg 84%
08:00 +14°C° 0 mm 1 m/s 752 mmHg 77%
09:00 +16°C° 0 mm 1 m/s 752 mmHg 71%
10:00 +18°C° 0 mm 1 m/s 752 mmHg 66%
11:00 +19°C° 0 mm 1 m/s 752 mmHg 61%
12:00 +20°C° 0 mm 1 m/s 751 mmHg 57%
13:00 +19°C° 0.1 mm 1 m/s 751 mmHg 60%
14:00 +18°C° 0.1 mm 2 m/s 751 mmHg 62%
15:00 +18°C° 0.1 mm 2 m/s 751 mmHg 65%
16:00 +17°C° 0.2 mm 3 m/s 752 mmHg 71%
17:00 +16°C° 0.2 mm 3 m/s 752 mmHg 77%
18:00 +13°C° 0.2 mm 4 m/s 752 mmHg 83%
19:00 +12°C° 0.1 mm 3 m/s 753 mmHg 85%
20:00 +11°C° 0.1 mm 3 m/s 753 mmHg 87%
21:00 +10°C° 0.1 mm 2 m/s 753 mmHg 89%
22:00 +10°C° 0 mm 2 m/s 753 mmHg 91%
23:00 +9°C° 0 mm 2 m/s 753 mmHg 92%
Mostrar mais